869  
ASUS44 KLCH 231310  
RWRLCH  
REGIONAL WEATHER ROUNDUP  
NATIONAL WEATHER SERVICE LAKE CHARLES LA  
800 AM CDT MON SEP 23 2019  
 
NOTE: "FAIR" INDICATES FEW OR NO CLOUDS BELOW 12,000 FEET WITH NO  
SIGNIFICANT WEATHER AND/OR S TO VISIBILITY
.  
 
ACROSS SOUTHEAST TEXAS  
 
CITY SKY/WX TMP DP RH WIND PRES REMARKS
 
BEAUMONT FAIR 80 78 94 E3 30.04R  
BEAUMONT CITY NOT AVBL  
ORANGE CLOUDY 78 78 100 CALM 30.07R FOG  
JASPER FAIR 74 74 98 CALM 30.08S  

 
 
ACROSS CENTRAL LOUISIANA  
 
CITY SKY/WX TMP DP RH WIND PRES REMARKS
 
LEESVILLE FAIR 74 72 96 CALM 30.07R FOG  
FULLERTON FOG 73 72 96 CALM 30.05R VSB 3/4  
ALEXANDRIA INT FAIR 73 71 93 SE5 30.06R  
ESLER FIELD FAIR 70 69 97 CALM 30.08R  
DERIDDER CLOUDY 73 72 95 CALM 30.09R FOG  
OAKDALE NOT AVBL  
OPELOUSAS FAIR 72 71 98 CALM 30.08R  

 
 
ACROSS SOUTHWEST AND SOUTH CENTRAL LOUISIANA  
 
CITY SKY/WX TMP DP RH WIND PRES REMARKS
 
DEQUINCY PTSUNNY 73 72 97 CALM 30.07R  
SULPHUR FAIR 77 77 100 E3 30.07R  
LAKE CHARLES PTSUNNY 78 75 90 NE3 30.06R  
CHENNAULT INT SUNNY 75 75 100 CALM 30.07R  
CAMERON PHI NOT AVBL  
GRAND CHENIER NOT AVBL  
JENNINGS FAIR 75 73 95 E3 30.07R  
LAFAYETTE FAIR 74 71 91 CALM 30.07R  
NEW IBERIA FAIR 75 74 96 E3 30.07R  
ABBEVILLE FAIR 72 72 100 CALM 30.07R  
PATTERSON FAIR 74 32 21 E3 30.08R  
SALT POINT N/A 77 75 93 MISG 30.05R  

 
 
SELECTED SITES ACROSS THE REGION  
 
CITY SKY/WX TMP DP RH WIND PRES REMARKS
 
HOUSTON BUSH PTCLDY 77 75 93 N3 30.04R  
HOUSTON HOBBY FAIR 81 76 84 E3 30.03R  
GALVESTON FAIR 84 79 85 SE8 30.03R  
COLLEGE STAT CLOUDY 79 77 94 SE5 30.05R  
CONROE FOG 77 76 96 CALM 30.05R VSB 1/4  
HUNTSVILLE CLOUDY 79 76 90 S3 30.05R FOG  
LUFKIN FOG 73 72 96 CALM 30.06R VSB 1/2  
SHREVEPORT SUNNY 74 73 97 S5 30.06R  
MONROE CLOUDY 72 70 93 CALM 30.09R  
NATCHEZ MS FAIR 74 70 87 CALM 30.11R  
BATON ROUGE FAIR 73 70 90 E3 N/A  
N.O. INTL ARPT FAIR 79 72 79 NE3 30.08R  
SLIDELL FAIR 71 67 87 N5 30.08R  

 
 
MARINE REPORTS  
 
STATION/POSITION TIME SKY/WX TEMP WIND PRES VSBY
 
AIR SEA DIR/SP/G  
(UTC) (F) (DEG/KT/KT) (MB) (MI)  
BUOY 30 S HIGH I 1250 85 150/ 10/ 12 1017.6R  
WVE H/P(F/S)= 3/ 8  
 
SEA RIM ST PARK 1200 82 140/ 7/ 9 1016.9R  
PORT ARTHUR 1230 81 79 130/ 4/ 5 1017.5R  
SABINE PASS N 1230 82 82 150/ 7/ 10 1018.7R  
TEXAS POINT 1218 82 81 140/ 10/ 12 1015.6  
CALCASIEU PASS 1230 82 83 160/ 6/ 10 1016.5R  
LK CHARLES BEACH 1230 76 84 1017.7R  
MARSH ISLAND 1200 81 N/A  
FRESH WATER LOCK NOT AVBL  
AMERADA PASS 1230 77 83 40/ 2/ 2 1017.8R  

 
 
 
CLICK HERE TO GO TO PREVIOUS BULLETINS.

The Nexlab LA Page
The Nexlab TX Page Main Text Page